Location: *
(40.7873°S, 98.7174°E)
Time: 03:11:01
(UTC+00:00)

Cosmos 2016 Rocket - Visible Passes

Search period start: 07 October 2022 00:00
Search period end: 17 October 2022 00:00
Orbit: 947 x 1000 km, 83.0° (Epoch: 06 October)

Date Brightness Start Highest point End Pass type
(mag) Time Alt. Az. Time Alt. Az. Time Alt. Az.
07 Oct 6.6 18:37:05 10° SE 18:39:50 13° ESE 18:42:34 10° E visible
07 Oct 4.0 20:19:45 10° S 20:26:06 86° E 20:29:49 27° N visible
07 Oct 5.6 22:07:38 10° SW 22:10:31 13° W 22:13:23 10° WNW visible
08 Oct 6.0 19:00:14 10° SSE 19:05:10 23° ESE 19:08:58 14° ENE visible
08 Oct 4.1 20:44:42 10° SSW 20:50:50 54° W 20:53:31 33° NNW visible
09 Oct 5.1 19:24:21 10° S 19:30:17 41° ESE 19:32:51 29° ENE visible
09 Oct 4.8 21:10:01 10° SSW 21:15:24 30° W 21:17:25 25° WNW visible
10 Oct 6.7 18:07:42 10° SE 18:08:45 10° ESE 18:09:47 10° ESE visible
10 Oct 4.1 19:48:53 10° S 19:55:13 72° E 19:56:52 51° NNE visible
10 Oct 5.4 21:36:00 10° SW 21:39:48 17° W 21:41:26 15° W visible
11 Oct 6.1 18:29:41 10° SSE 18:34:08 20° ESE 18:36:23 16° E visible
11 Oct 3.9 20:13:44 10° SSW 20:20:00 66° W 20:20:58 58° NW visible
12 Oct 5.3 18:53:37 10° S 18:59:20 34° ESE 19:00:35 31° E visible
12 Oct 4.5 20:38:55 10° SSW 20:44:37 37° W 20:45:10 36° W visible
13 Oct 4.3 19:18:03 10° S 19:24:20 60° E 19:24:50 58° ENE visible
13 Oct 5.3 21:04:37 10° SW 21:09:05 21° W 21:09:25 20° W visible
14 Oct 6.2 17:59:17 10° SSE 18:03:06 16° ESE 18:04:32 15° E visible
14 Oct 3.9 19:42:47 10° S 19:49:08 79° W 19:49:08 79° W visible
14 Oct 5.8 21:32:13 10° WSW 21:33:23 11° WSW 21:33:44 10° W visible
15 Oct 5.5 18:22:57 10° SSE 18:28:21 29° ESE 18:28:53 28° E visible
15 Oct 4.4 20:07:52 10° SSW 20:13:29 44° W 20:13:29 44° W visible
16 Oct 4.7 18:47:14 10° S 18:53:16 50° ESE 18:53:16 50° ESE visible
16 Oct 5.2 20:33:21 10° SSW 20:37:52 25° WSW 20:37:52 25° WSW visible
